Location: Central Coast NSW, Australia
(33.2407°S, 151.4316°E)
Time: 02:53:45
(UTC+10:00)

Envisat - Pass Details

Date: 25 March 2019
Orbit: 764 x 766 km, 98.2° (Epoch: 21 April)

Event Time Altitude Azimuth Distance (km) Brightness Sun altitude
Rises 20:42:40 0° 175° (S) 3,266 6.4 -22.2°
Reaches altitude 10° 20:45:03 10° 180° (S) 2,333 5.6 -22.7°
Maximum altitude 20:49:59 49° 253° (WSW) 994 3.9 -23.7°
Drops below altitude 10° 20:54:53 10° 327° (NNW) 2,305 5.7 -24.7°
Sets 20:57:14 0° 332° (NNW) 3,223 6.4 -25.2°
